Santa Monica, CA

6:18 PM PDT on March 22, 2017 (GMT -0700)
Santa Monica Municipal

Weather History for KSMO - January, 2012

Change the Weather History Date:

Friday, January 20, 2012

  Actual Average Record
Temperature  
Mean Temperature 52 °F -  
Max Temperature 59 °F 66 °F 86 °F (1944)
Min Temperature 46 °F 48 °F 31 °F (1935)
Degree Days  
Heating Degree Days 12    
Growing Degree Days 2 (Base 50)    
Moisture  
Dew Point 48 °F    
Average Humidity 79    
Maximum Humidity 93    
Minimum Humidity 62    
Precipitation  
Precipitation 0.00 in - - ()
Sea Level Pressure  
Sea Level Pressure 30.09 in    
Wind  
Wind Speed 3 mph (SW)    
Max Wind Speed 9 mph    
Max Gust Speed -    
Visibility 8 miles    
Events      
Averages and records for this station are not official NWS values.
T = Trace of Precipitation, MM = Missing Value Source: NWS Daily Summary

Daily Weather History Graph

Daily Weather History Graph

Search for Another Location

Airport or City:

Trip Planner

Search our weather history database for the weather conditions in past years. The results will help you decide how hot, cold, wet, or windy it might be!

Date:

Astronomy

Jan. 20, 2012 Rise Set
Actual Time 6:57 AM PST 5:12 PM PST
Civil Twilight 6:30 AM PST 5:39 PM PST
Nautical Twilight 6:00 AM PST 6:09 PM PST
Astronomical Twilight 5:30 AM PST 6:39 PM PST
Moon 4:36 AM PST (1/20) 2:51 PM PST (1/20)
Length of Visible Light 11h 08m
Length of Day
10h 14m
Waning Crescent, 7% of the Moon is Illuminated
Jan 20
Waning Crescent
Jan 22
New
Jan 30
First Quarter
Feb 7
Full
Feb 14
Last Quarter

Hourly Weather History & Observations

Time (PST) Temp. Dew Point Humidity Pressure Visibility Wind Dir Wind Speed Gust Speed Precip Events Conditions
12:51 AM 46.9 °F 43.0 °F 86% 30.07 in 9.0 mi NNE 4.6 mph - N/A   Clear
1:51 AM 48.9 °F 44.1 °F 83% 30.08 in 8.0 mi NNE 4.6 mph - N/A   Clear
2:42 AM 48.2 °F 46.4 °F 93% 30.08 in 6.0 mi ENE 3.5 mph - N/A   Mostly Cloudy
2:51 AM 48.0 °F 46.0 °F 93% 30.09 in 6.0 mi NE 3.5 mph - N/A   Overcast
3:51 AM 50.0 °F 46.9 °F 89% 30.07 in 5.0 mi Calm Calm - N/A   Overcast
4:14 AM 50.0 °F 46.4 °F 87% 30.07 in 5.0 mi Calm Calm - N/A   Overcast
4:51 AM 51.1 °F 46.9 °F 86% 30.07 in 6.0 mi Calm Calm - N/A   Mostly Cloudy
5:51 AM 52.0 °F 46.9 °F 83% 30.09 in 7.0 mi Calm Calm - N/A   Overcast
6:46 AM 50.0 °F 46.4 °F 87% 30.10 in 5.0 mi Calm Calm - N/A   Scattered Clouds
6:51 AM 50.0 °F 46.0 °F 86% 30.10 in 4.0 mi Calm Calm - N/A   Partly Cloudy
7:51 AM 52.0 °F 46.9 °F 83% 30.12 in 4.0 mi Calm Calm - N/A   Haze
8:51 AM 55.0 °F 46.9 °F 74% 30.14 in 5.0 mi Variable 3.5 mph - N/A   Haze
9:51 AM 57.0 °F 46.0 °F 67% 30.15 in 7.0 mi Calm Calm - N/A   Clear
10:51 AM 57.9 °F 46.0 °F 65% 30.14 in 8.0 mi SSW 4.6 mph - N/A   Scattered Clouds
11:14 AM 59.0 °F 46.4 °F 63% 30.13 in 10.0 mi SSW 6.9 mph - N/A   Mostly Cloudy
11:27 AM 59.0 °F 46.4 °F 63% 30.13 in 8.0 mi Variable 4.6 mph - N/A   Scattered Clouds
11:51 AM 59.0 °F 46.0 °F 62% 30.11 in 10.0 mi SSW 5.8 mph - N/A   Partly Cloudy
12:51 PM 59.0 °F 46.0 °F 62% 30.08 in 10.0 mi WSW 9.2 mph - N/A   Clear
1:51 PM 57.9 °F 46.9 °F 67% 30.06 in 10.0 mi WSW 5.8 mph - N/A   Clear
3:51 PM 57.9 °F 48.0 °F 70% 30.05 in 10.0 mi SW 5.8 mph - N/A   Clear
4:51 PM 55.9 °F 48.9 °F 77% 30.07 in 10.0 mi SW 6.9 mph - N/A   Clear
6:51 PM 55.9 °F 50.0 °F 80% 30.07 in 10.0 mi SW 3.5 mph - N/A   Mostly Cloudy
6:58 PM 55.4 °F 50.0 °F 82% 30.08 in 10.0 mi SW 3.5 mph - N/A   Mostly Cloudy
7:51 PM 55.9 °F 50.0 °F 80% 30.08 in 10.0 mi Calm Calm - N/A   Mostly Cloudy
7:58 PM 55.4 °F 50.0 °F 82% 30.08 in 10.0 mi Calm Calm - N/A   Mostly Cloudy
8:51 PM 55.9 °F 50.0 °F 80% 30.07 in 10.0 mi Calm Calm - N/A   Overcast
9:51 PM 55.9 °F 50.0 °F 80% 30.09 in 9.0 mi Calm Calm - N/A   Overcast
9:58 PM 55.4 °F 50.0 °F 82% 30.09 in 9.0 mi Calm Calm - N/A   Overcast
10:32 PM 55.4 °F 50.0 °F 82% 30.10 in 9.0 mi Calm Calm - N/A   Overcast
10:51 PM 55.9 °F 50.0 °F 80% 30.10 in 10.0 mi Calm Calm - N/A   Overcast
11:09 PM 55.4 °F 50.0 °F 82% 30.09 in 9.0 mi Calm Calm - N/A   Overcast
11:36 PM 55.4 °F 51.8 °F 88% 30.07 in 8.0 mi Calm Calm - N/A   Overcast
11:51 PM 55.9 °F 50.0 °F 80% 30.08 in 8.0 mi Calm Calm - N/A   Overcast